1537156800.74,26442,18.0,74580.0,3.61,-18.01,-17.97,0,*7F
1537156801.99,26443,18.0,74580.0,3.63,-17.97,-18.01,0,*7C
1537156803.22,26444,18.0,74582.5,3.61,-17.87,-17.87,0,*79
1537156804.45,26445,18.0,74580.8,3.61,-17.73,-17.83,0,*77
1537156805.68,26446,18.0,74580.8,3.61,-17.83,-17.83,0,*7B
1537156806.94,26447,18.0,74580.3,3.61,-17.97,-17.87,0,*7B
1537156808.19,26448,18.0,74580.5,3.61,-17.97,-17.87,0,*74
1537156809.47,26449,18.0,74584.5,3.61,-17.59,-17.59,0,*74
1537156810.72,26450,18.0,74584.0,3.61,-17.59,-17.69,0,*7F
1537156811.94,26451,18.0,74582.3,3.61,-17.69,-17.83,0,*79
1537156813.19,26452,18.0,74584.3,3.61,-17.59,-17.69,0,*7D
1537156814.44,26453,18.0,74580.5,3.61,-17.59,-17.69,0,*7C
1537156815.69,26454,18.0,74584.0,3.59,-17.59,-17.63,0,*7A
1537156816.96,26455,18.0,74584.8,3.61,-17.55,-17.59,0,*75
1537156818.18,26456,18.0,74584.8,3.61,-17.49,-17.49,0,*7A
1537156819.43,26457,18.0,74580.8,3.59,-17.59,-17.63,0,*79
1537156820.68,26458,18.0,74584.3,3.59,-17.59,-17.63,0,*76
1537156821.88,26459,18.0,74584.3,3.59,-17.73,-17.87,0,*75
1537156823.11,26460,18.0,74580.5,3.61,-17.83,-17.83,0,*7F
1537156824.34,26461,18.0,74582.8,3.61,-17.83,-17.83,0,*7E
1537156825.57,26462,18.0,74584.8,3.59,-17.79,-17.87,0,*77
1537156826.79,26463,18.0,74586.3,3.59,-17.79,-17.87,0,*76
1537156828.02,26464,18.0,74582.3,3.59,-17.63,-17.87,0,*7A
1537156829.24,26465,18.0,74584.3,3.59,-17.73,-17.79,0,*7B
1537156830.49,26466,18.0,74584.8,3.59,-17.55,-17.59,0,*7E
1537156831.71,26467,18.0,74584.8,3.59,-17.31,-17.41,0,*74
1537156832.97,26468,18.0,74586.3,3.59,-17.17,-17.17,0,*7C
1537156834.22,26469,18.0,74582.3,3.59,-17.25,-17.41,0,*7F
1537156835.47,26470,18.0,74580.8,3.59,-17.45,-17.55,0,*74
1537156836.71,26471,18.0,74584.0,3.61,-17.35,-17.35,0,*7F
1537156837.96,26472,18.0,74580.5,3.63,-17.21,-17.11,0,*7D
1537156839.23,26473,18.0,74580.0,3.61,-17.21,-17.21,0,*7D
1537156840.51,26474,18.0,74580.8,3.61,-17.07,-17.11,0,*7D
1537156841.78,26475,18.0,74582.3,3.61,-17.11,-17.11,0,*7B
1537156843.04,26476,18.0,74580.8,3.63,-17.41,-17.41,0,*7A
1537156844.26,26477,18.0,74578.8,3.63,-17.49,-17.55,0,*76
1537156845.46,26478,18.0,74584.5,3.63,-17.69,-17.69,0,*74
1537156846.68,26479,18.0,74580.0,3.61,-17.69,-17.73,0,*7C
1537156847.91,26480,18.0,74582.8,3.61,-17.83,-17.87,0,*75
1537156849.14,26481,18.0,74580.3,3.61,-17.87,-17.87,0,*70
1537156850.37,26482,18.0,74584.3,3.61,-17.83,-17.87,0,*77
1537156851.59,26483,18.0,74582.3,3.61,-17.73,-17.83,0,*7D
1537156852.82,26484,18.0,74584.8,3.61,-17.83,-17.87,0,*71
1537156854.06,26485,18.0,74582.0,3.61,-17.83,-17.83,0,*74
1537156855.29,26486,18.0,74586.3,3.61,-17.83,-17.87,0,*73
1537156856.51,26487,18.0,74582.3,3.61,-17.83,-17.87,0,*72
1537156857.73,26488,18.0,74582.0,3.61,-17.69,-17.73,0,*72
1537156859.01,26489,18.0,74584.8,3.61,-17.59,-17.59,0,*78
1537156860.26,26490,18.0,74584.8,3.59,-17.59,-17.59,0,*7B
1537156861.5,26491,18.0,74584.3,3.59,-17.63,-17.79,0,*71
1537156862.78,26492,18.0,74582.8,3.57,-17.63,-17.79,0,*7C
1537156864.05,26493,18.0,74580.5,3.57,-17.79,-17.93,0,*72
1537156865.27,26494,18.0,74584.3,3.59,-17.63,-17.73,0,*7E
1537156866.49,26495,18.0,74580.5,3.59,-17.79,-17.87,0,*7F
1537156867.75,26496,18.0,74582.5,3.57,-17.83,-17.93,0,*72
1537156869.02,26497,18.0,74582.0,3.57,-17.93,-17.93,0,*72
1537156870.28,26498,18.0,74584.3,3.57,-17.79,-17.83,0,*78
1537156871.56,26499,18.0,74586.3,3.57,-17.93,-17.97,0,*78
1537156872.78,26500,18.0,74582.0,3.59,-17.87,-17.93,0,*76
1537156874.07,26501,18.0,74586.5,3.57,-17.93,-17.97,0,*78
1537156875.35,26502,18.0,74584.8,3.57,-17.93,-17.97,0,*7B
1537156876.63,26503,18.0,74586.5,3.57,-17.93,-17.97,0,*7A
1537156877.89,26504,18.0,74582.8,3.57,-17.97,-18.07,0,*7F
1537156879.15,26505,18.0,74586.0,3.57,-17.97,-18.07,0,*7E
1537156880.41,26506,18.0,74584.8,3.55,-17.97,-17.97,0,*79
1537156881.64,26507,18.0,74586.0,3.55,-17.83,-17.93,0,*79
1537156882.89,26508,18.0,74586.5,3.53,-17.73,-17.97,0,*7B
1537156884.12,26509,18.0,74582.3,3.55,-17.83,-17.93,0,*77
1537156885.33,26510,18.0,74582.8,3.55,-17.83,-17.83,0,*7E
1537156886.59,26511,18.0,74584.8,3.53,-17.87,-17.97,0,*78
1537156887.85,26512,18.0,74582.5,3.53,-17.97,-18.11,0,*7B
1537156889.14,26513,18.0,74586.3,3.53,-17.97,-18.01,0,*7B
1537156890.42,26514,18.0,74584.3,3.53,-18.01,-18.01,0,*7C
1537156891.68,26515,18.0,74586.3,3.53,-17.83,-17.97,0,*78
1537156892.91,26516,18.0,74584.8,3.55,-17.83,-17.97,0,*7D
1537156894.12,26517,18.0,74582.0,3.55,-17.69,-17.83,0,*7D
1537156895.38,26518,17.94,74582.8,3.53,-17.83,-17.97,0,*75
1537156896.63,26519,18.0,74586.8,3.53,-17.87,-18.01,0,*70
1537156897.87,26520,18.0,74584.3,3.53,-17.87,-18.11,0,*7B
1537156899.15,26521,18.0,74586.8,3.53,-17.97,-18.01,0,*7A
1537156900.41,26522,18.0,74584.3,3.55,-17.93,-17.97,0,*7B
1537156901.66,26523,18.0,74586.0,3.49,-18.01,-18.17,0,*74
1537156902.92,26524,18.0,74584.8,3.49,-18.01,-18.07,0,*72
1537156904.15,26525,18.0,74584.8,3.51,-17.87,-18.01,0,*7D
1537156905.41,26526,18.0,74582.0,3.49,-18.01,-18.07,0,*70
1537156906.61,26527,18.0,74584.0,3.51,-17.87,-18.11,0,*7E
1537156907.87,26528,18.0,74582.0,3.49,-18.01,-18.17,0,*7F
1537156909.12,26529,18.0,74586.3,3.49,-17.93,-18.07,0,*7B
1537156910.38,26530,18.0,74586.8,3.49,-17.79,-18.07,0,*77
1537156911.63,26531,18.0,74586.0,3.49,-17.73,-17.93,0,*7E
1537156912.86,26532,18.0,74586.8,3.49,-17.73,-17.87,0,*78
1537156914.13,26533,18.0,74584.3,3.49,-17.79,-17.79,0,*72
1537156915.38,26534,18.0,74586.0,3.49,-17.69,-17.93,0,*70
1537156916.62,26535,18.0,74586.0,3.51,-17.87,-17.97,0,*7C
1537156917.87,26536,18.0,74584.5,3.49,-17.87,-17.93,0,*72
1537156919.14,26537,18.0,74586.0,3.49,-17.79,-17.93,0,*72
1537156920.38,26538,18.0,74586.0,3.49,-17.73,-17.87,0,*72
1537156921.65,26539,18.0,74586.5,3.49,-17.79,-18.01,0,*78
1537156922.88,26540,18.0,74584.5,3.45,-17.83,-18.07,0,*79
1537156924.13,26541,18.0,74586.0,3.45,-17.93,-18.21,0,*7D
1537156925.37,26542,18.0,74584.3,3.49,-17.87,-18.07,0,*73
1537156926.6,26543,18.0,74586.0,3.45,-18.07,-18.11,0,*7E
1537156927.83,26544,18.0,74584.3,3.43,-17.97,-18.07,0,*7E
1537156929.11,26545,18.0,74584.3,3.45,-17.93,-17.97,0,*7B
1537156930.36,26546,18.0,74582.5,3.45,-17.83,-17.93,0,*7D
1537156931.61,26547,18.0,74584.8,3.45,-17.93,-18.07,0,*7F
1537156932.87,26548,18.0,74580.5,3.45,-17.97,-18.11,0,*73
1537156934.1,26549,18.0,74584.8,3.43,-17.93,-18.07,0,*77
1537156935.36,26550,18.0,74586.5,3.45,-17.83,-17.97,0,*7E
1537156936.59,26551,18.0,74584.3,3.43,-17.93,-18.11,0,*79
1537156937.79,26552,18.0,74586.0,3.43,-17.83,-18.07,0,*7C
1537156939.02,26553,18.0,74586.5,3.43,-17.83,-17.97,0,*7B
1537156940.23,26554,18.0,74584.8,3.43,-17.83,-18.07,0,*7A
1537156941.43,26555,18.0,74586.0,3.43,-17.83,-18.07,0,*7B
1537156942.66,26556,18.0,74590.3,3.43,-17.49,-17.63,0,*73
1537156943.9,26557,18.0,74586.8,3.43,-17.63,-17.79,0,*71
1537156945.15,26558,18.0,74584.0,3.43,-17.63,-17.79,0,*7E
1537156946.37,26559,18.0,74584.3,3.43,-17.63,-17.83,0,*7A
1537156947.63,26560,18.0,74586.3,3.43,-17.59,-17.59,0,*7E
1537156948.82,26561,18.0,74588.0,3.43,-17.49,-17.73,0,*76
1537156950.05,26562,18.0,74584.8,3.43,-17.59,-17.73,0,*74
1537156951.27,26563,18.0,74588.8,3.43,-17.49,-17.79,0,*7E
1537156952.5,26564,18.0,74584.8,3.43,-17.17,-17.31,0,*7E
1537156953.75,26565,18.0,74586.5,3.43,-17.07,-17.21,0,*7F
1537156955.0,26566,18.0,74586.5,3.45,-16.93,-17.17,0,*73
1537156956.25,26567,18.0,74584.3,3.45,-16.93,-17.07,0,*73
1537156957.53,26568,18.0,74584.5,3.45,-17.07,-17.17,0,*71
1537156958.79,26569,18.0,74582.5,3.45,-16.89,-17.07,0,*76
1537156960.04,26570,18.0,74586.8,3.49,-16.89,-17.03,0,*76
1537156961.3,26571,18.0,74586.5,3.49,-16.89,-17.03,0,*77
1537156962.51,26572,18.0,74586.5,3.51,-16.79,-16.97,0,*7E
1537156963.76,26573,18.0,74584.0,3.49,-16.97,-17.11,0,*79
1537156964.99,26574,18.0,74584.3,3.51,-16.97,-17.21,0,*74
1537156966.23,26575,18.0,74584.3,3.51,-17.21,-17.35,0,*7C
1537156967.46,26576,18.0,74586.8,3.51,-17.11,-17.35,0,*7C
1537156968.69,26577,18.0,74588.3,3.51,-17.35,-17.41,0,*78
1537156969.95,26578,18.0,74584.5,3.51,-17.21,-17.41,0,*72
1537156971.18,26579,18.0,74582.8,3.51,-17.25,-17.35,0,*74
1537156972.44,26580,18.0,74584.5,3.53,-17.25,-17.35,0,*70
1537156973.68,26581,18.0,74586.0,3.55,-17.07,-17.35,0,*77
1537156974.88,26582,18.0,74584.8,3.55,-17.35,-17.49,0,*7E
1537156976.17,26583,18.0,74584.8,3.53,-17.41,-17.55,0,*77
1537156977.4,26584,18.0,74586.5,3.55,-17.49,-17.59,0,*72
1537156978.66,26585,18.0,74586.3,3.53,-17.55,-17.83,0,*7F
1537156979.91,26586,18.0,74584.3,3.53,-17.49,-17.63,0,*7F
1537156981.14,26587,18.0,74584.3,3.53,-17.49,-17.69,0,*74
1537156982.4,26588,18.0,74582.8,3.53,-17.41,-17.49,0,*71
1537156983.63,26589,18.0,74586.5,3.53,-17.49,-17.69,0,*7A
1537156984.86,26590,18.0,74584.8,3.53,-17.35,-17.49,0,*7B
1537156986.1,26591,18.0,74584.8,3.53,-17.49,-17.69,0,*73
1537156987.37,26592,18.0,74582.0,3.53,-17.55,-17.63,0,*77
1537156988.63,26593,18.0,74584.3,3.53,-17.41,-17.49,0,*7B
1537156989.85,26594,18.0,74582.8,3.55,-17.31,-17.45,0,*71
1537156991.11,26595,18.0,74584.8,3.53,-17.49,-17.55,0,*78
1537156992.37,26596,18.0,74586.0,3.53,-17.41,-17.49,0,*7E
1537156993.65,26597,18.0,74582.8,3.53,-17.25,-17.41,0,*75
1537156994.9,26598,18.0,74586.5,3.55,-17.21,-17.45,0,*7C
1537156996.17,26599,18.0,74586.5,3.53,-17.21,-17.35,0,*7C
1537156997.45,26600,18.0,74584.5,3.53,-17.41,-17.63,0,*7A
1537156998.7,26601,18.0,74582.0,3.53,-17.25,-17.49,0,*71
1537156999.93,26602,18.0,74586.5,3.55,-17.21,-17.49,0,*70
1537157001.14,26603,18.0,74582.0,3.55,-17.31,-17.35,0,*7B
1537157002.36,26604,18.0,74580.5,3.55,-17.31,-17.45,0,*7B
1537157003.63,26605,18.0,74580.5,3.57,-17.17,-17.35,0,*7B
1537157004.88,26606,18.0,74580.5,3.55,-17.21,-17.45,0,*78
1537157006.13,26607,18.0,74586.0,3.57,-17.49,-17.63,0,*71
1537157007.37,26608,18.0,74582.8,3.57,-17.49,-17.69,0,*74
1537157008.6,26609,18.0,74586.0,3.57,-17.49,-17.69,0,*75
1537157009.85,26610,18.0,74584.3,3.57,-17.49,-17.79,0,*7C
1537157011.08,26611,18.0,74586.3,3.55,-17.49,-17.79,0,*7F
1537157012.31,26612,18.0,74584.3,3.55,-17.45,-17.69,0,*71
1537157013.57,26613,18.0,74582.0,3.57,-17.49,-17.63,0,*74
1537157014.81,26614,18.0,74584.5,3.55,-17.63,-17.79,0,*72
1537157016.07,26615,18.0,74584.5,3.53,-17.63,-17.83,0,*70
1537157017.3,26616,18.0,74584.3,3.55,-17.59,-17.69,0,*78
1537157018.55,26617,18.0,74586.0,3.55,-17.45,-17.63,0,*7E
1537157019.78,26618,18.0,74580.8,3.55,-17.49,-17.63,0,*7D
1537157021.01,26619,18.0,74582.8,3.55,-17.35,-17.63,0,*77
1537157022.26,26620,18.0,74584.0,3.57,-17.21,-17.49,0,*72
1537157023.55,26621,18.0,74586.5,3.57,-17.21,-17.45,0,*7F
1537157024.77,26622,18.0,74586.5,3.57,-17.31,-17.49,0,*71
1537157026.02,26623,18.0,74586.0,3.57,-17.31,-17.45,0,*7C
1537157027.28,26624,18.0,74586.3,3.57,-17.35,-17.59,0,*72
1537157028.53,26625,18.0,74586.0,3.59,-17.25,-17.45,0,*71
1537157029.79,26626,18.0,74586.0,3.57,-17.17,-17.49,0,*71
1537157031.04,26627,18.0,74584.5,3.57,-17.21,-17.49,0,*75
1537157032.26,26628,18.0,74586.8,3.59,-17.31,-17.45,0,*79
1537157033.51,26629,18.0,74584.0,3.59,-17.25,-17.55,0,*7C
1537157034.77,26630,18.0,74584.3,3.59,-17.17,-17.45,0,*74
1537157036.03,26631,18.0,74588.8,3.59,-17.41,-17.59,0,*7B
1537157037.31,26632,17.94,74580.8,3.57,-17.21,-17.45,0,*7D
1537157038.56,26633,18.0,74584.5,3.59,-17.25,-17.45,0,*76
1537157039.81,26634,18.0,74590.0,3.59,-17.25,-17.41,0,*75
1537157041.09,26635,18.0,74584.3,3.57,-17.21,-17.45,0,*7A
1537157042.35,26636,18.0,74586.8,3.59,-17.25,-17.41,0,*77
1537157043.57,26637,18.0,74588.5,3.59,-17.31,-17.45,0,*77
1537157044.81,26638,18.0,74590.0,3.59,-17.11,-17.25,0,*7C
1537157046.04,26639,18.0,74586.3,3.59,-17.03,-17.31,0,*7B
1537157047.28,26640,18.0,74588.3,3.59,-17.11,-17.17,0,*72
1537157048.53,26641,18.0,74586.0,3.61,-16.93,-17.11,0,*75
1537157049.79,26642,18.0,74584.5,3.61,-16.83,-17.07,0,*70
1537157051.01,26643,18.0,74588.0,3.59,-16.97,-17.17,0,*7E
1537157052.27,26644,18.0,74588.5,3.61,-16.83,-17.07,0,*76
1537157053.49,26645,18.0,74590.0,3.63,-16.93,-17.11,0,*73
1537157054.72,26646,18.0,74586.5,3.63,-17.11,-17.35,0,*7D
1537157055.96,26647,18.0,74590.0,3.63,-17.11,-17.41,0,*7F
1537157057.22,26648,18.0,74586.8,3.63,-17.41,-17.59,0,*7C
1537157058.47,26649,18.0,74590.3,3.61,-17.41,-17.73,0,*77
1537157059.7,26650,18.0,74588.0,3.63,-17.35,-17.55,0,*7A
1537157060.93,26651,18.0,74588.5,3.63,-17.35,-17.55,0,*7B
1537157062.15,26652,18.0,74588.0,3.63,-17.11,-17.35,0,*78
1537157063.43,26653,18.0,74586.8,3.61,-17.21,-17.41,0,*7B
1537157064.68,26654,18.0,74590.8,3.63,-17.25,-17.41,0,*7A
1537157065.93,26655,18.0,74586.8,3.63,-17.21,-17.41,0,*7F
1537157067.16,26656,18.0,74586.8,3.63,-17.25,-17.49,0,*70
1537157068.38,26657,18.0,74586.0,3.63,-17.21,-17.49,0,*75
1537157069.64,26658,18.0,74586.0,3.65,-17.07,-17.45,0,*74
1537157070.88,26659,18.0,74588.3,3.65,-17.21,-17.35,0,*76
1537157072.11,26660,18.0,74586.8,3.65,-17.21,-17.49,0,*77
1537157073.33,26661,18.0,74586.8,3.65,-17.31,-17.45,0,*7B
1537157074.61,26662,18.0,74586.8,3.67,-17.21,-17.45,0,*7B
1537157075.84,26663,18.0,74584.5,3.65,-17.35,-17.63,0,*79
1537157077.08,26664,18.0,74590.8,3.65,-17.35,-17.63,0,*7E
1537157078.33,26665,18.0,74588.0,3.67,-17.35,-17.55,0,*78
1537157079.59,26666,18.0,74590.8,3.67,-17.35,-17.55,0,*7B
1537157080.83,26667,18.0,74590.5,3.65,-17.21,-17.35,0,*7B
1537157082.07,26668,18.0,74588.8,3.65,-17.17,-17.35,0,*71
1537157083.32,26669,18.0,74584.5,3.67,-17.17,-17.49,0,*79
1537157084.6,26670,18.0,74584.0,3.67,-17.21,-17.45,0,*78
1537157085.83,26671,18.0,74588.8,3.65,-17.21,-17.49,0,*77
1537157087.11,26672,18.0,74584.8,3.67,-17.21,-17.45,0,*7A
1537157088.37,26673,18.0,74584.0,3.67,-17.35,-17.63,0,*7A
1537157089.62,26674,18.0,74582.5,3.67,-17.35,-17.55,0,*78
1537157090.85,26675,18.0,74586.0,3.67,-17.35,-17.69,0,*76
1537157092.11,26676,18.0,74584.5,3.65,-17.45,-17.79,0,*71
1537157093.39,26677,18.0,74584.0,3.67,-17.79,-17.97,0,*7D
1537157094.67,26678,18.0,74582.3,3.67,-17.79,-17.97,0,*72
1537157095.9,26679,18.0,74582.5,3.65,-17.69,-17.97,0,*70
1537157097.13,26680,18.0,74584.5,3.65,-17.63,-17.83,0,*79
1537157098.39,26681,18.0,74584.8,3.67,-17.55,-17.83,0,*7F
1537157099.6,26682,18.0,74584.5,3.65,-17.49,-17.83,0,*73
1537157100.83,26683,18.0,74586.8,3.65,-17.45,-17.69,0,*7A
1537157102.05,26684,18.0,74584.3,3.67,-17.31,-17.49,0,*7E
1537157103.28,26685,18.0,74588.8,3.67,-17.31,-17.49,0,*7F
1537157104.51,26686,18.0,74586.5,3.65,-17.35,-17.55,0,*77
1537157105.71,26687,18.0,74584.0,3.65,-17.35,-17.49,0,*7B
1537157106.95,26688,18.0,74582.0,3.65,-17.35,-17.63,0,*7C
1537157108.2,26689,18.0,74586.8,3.67,-17.49,-17.79,0,*7F
1537157109.48,26690,18.0,74586.0,3.67,-17.55,-17.79,0,*7A
1537157110.76,26691,18.0,74584.3,3.67,-17.45,-17.79,0,*7A
1537157112.02,26692,18.0,74586.8,3.67,-17.45,-17.69,0,*78
1537157113.27,26693,18.0,74584.3,3.67,-17.45,-17.69,0,*79
1537157114.53,26694,18.0,74586.3,3.65,-17.55,-17.79,0,*7C
1537157115.76,26695,18.0,74586.8,3.65,-17.55,-17.83,0,*78
1537157117.04,26696,18.0,74584.3,3.67,-17.45,-17.55,0,*73
1537157118.3,26697,18.0,74584.5,3.67,-17.35,-17.63,0,*70
1537157119.53,26698,18.0,74586.5,3.65,-17.35,-17.63,0,*7D
1537157120.79,26699,18.0,74584.0,3.65,-17.21,-17.45,0,*7D
1537157122.07,26700,18.0,74584.3,3.67,-17.17,-17.45,0,*7B
1537157123.32,26701,18.0,74586.0,3.67,-17.21,-17.49,0,*73
1537157124.58,26702,18.0,74584.5,3.67,-17.35,-17.63,0,*7D
1537157125.83,26703,18.0,74584.3,3.67,-17.35,-17.63,0,*7C
1537157127.08,26704,18.0,74582.8,3.71,-17.25,-17.49,0,*75
1537157128.33,26705,18.0,74586.0,3.67,-17.03,-17.31,0,*78
1537157129.58,26706,17.94,74580.5,3.71,-16.89,-17.11,0,*7D
1537157130.86,26707,18.0,74584.8,3.71,-16.69,-17.03,0,*71
1537157132.09,26708,18.0,74584.0,3.73,-16.83,-17.11,0,*7B
1537157133.32,26709,18.0,74584.3,3.71,-16.45,-16.83,0,*78
1537157134.52,26710,18.0,74582.3,3.73,-16.37,-16.55,0,*7C
1537157135.73,26711,18.0,74584.0,3.73,-16.55,-16.83,0,*72
1537157136.93,26712,18.0,74582.5,3.73,-16.83,-16.97,0,*7F
1537157138.16,26713,18.0,74584.3,3.73,-16.83,-17.11,0,*71
1537157139.42,26714,18.0,74584.3,3.75,-16.79,-17.07,0,*72
1537157140.65,26715,18.0,74586.0,3.77,-16.79,-17.07,0,*71
1537157141.89,26716,18.0,74584.0,3.75,-16.69,-16.93,0,*7D
1537157143.11,26717,18.0,74586.0,3.77,-16.93,-17.21,0,*73
1537157144.36,26718,18.0,74586.0,3.77,-17.03,-17.21,0,*74
1537157145.59,26719,18.0,74584.8,3.77,-17.07,-17.35,0,*74
1537157146.82,26720,18.0,74584.3,3.77,-17.07,-17.35,0,*7E
1537157148.07,26721,18.0,74584.5,3.77,-17.03,-17.21,0,*7E
1537157149.35,26722,18.0,74582.8,3.79,-17.03,-17.21,0,*73
1537157150.62,26723,18.0,74580.3,3.79,-17.03,-17.17,0,*77
1537157151.87,26724,18.0,74582.5,3.79,-16.89,-17.17,0,*73
1537157153.12,26725,18.0,74582.8,3.79,-16.93,-17.07,0,*78
1537157154.37,26726,18.0,74586.0,3.79,-17.17,-17.31,0,*73
1537157155.62,26727,18.0,74582.3,3.79,-16.89,-17.17,0,*70
1537157156.87,26728,18.0,74582.5,3.79,-16.89,-17.17,0,*7F
1537157158.12,26729,17.94,74582.5,3.79,-17.07,-17.35,0,*79
1537157159.4,26730,18.0,74586.5,3.79,-17.03,-17.21,0,*70
1537157160.66,26731,18.0,74584.3,3.79,-17.17,-17.35,0,*71
1537157161.9,26732,18.0,74586.5,3.79,-17.07,-17.31,0,*77
1537157163.15,26733,18.0,74586.8,3.79,-17.31,-17.55,0,*71
1537157164.4,26734,18.0,74584.0,3.79,-17.35,-17.63,0,*77
1537157165.65,26735,18.0,74588.3,3.79,-17.49,-17.79,0,*76
1537157166.88,26736,18.0,74584.8,3.79,-17.49,-17.69,0,*74
1537157168.13,26737,18.0,74586.5,3.79,-17.49,-17.79,0,*74
1537157169.38,26738,18.0,74584.3,3.79,-17.55,-17.83,0,*73
1537157170.65,26739,17.94,74580.5,3.79,-17.55,-17.93,0,*73
1537157171.9,26740,18.0,74584.8,3.79,-17.49,-17.79,0,*74
1537157173.15,26741,18.0,74586.5,3.79,-17.41,-17.69,0,*7C
1537157174.4,26742,18.0,74586.3,3.79,-17.21,-17.49,0,*7B
1537157175.65,26743,18.0,74580.3,3.79,-17.21,-17.49,0,*7A
1537157176.89,26744,18.0,74584.0,3.79,-17.31,-17.55,0,*71
1537157178.11,26745,18.0,74584.0,3.79,-17.31,-17.49,0,*7D
1537157179.33,26746,18.0,74584.5,3.77,-17.31,-17.63,0,*78
1537157180.55,26747,18.0,74584.3,3.77,-17.21,-17.49,0,*70
1537157181.77,26748,18.0,74586.0,3.77,-17.31,-17.55,0,*73
1537157183.04,26749,18.0,74584.5,3.75,-17.21,-17.45,0,*70
1537157184.3,26750,18.0,74586.5,3.77,-17.17,-17.41,0,*7B
1537157185.53,26751,18.0,74586.3,3.77,-17.07,-17.35,0,*78
1537157186.78,26752,18.0,74586.0,3.79,-17.21,-17.49,0,*7A
1537157187.99,26753,18.0,74586.0,3.81,-17.11,-17.31,0,*70
1537157189.25,26754,18.0,74584.0,3.79,-17.07,-17.35,0,*73
1537157190.51,26755,18.0,74586.0,3.79,-17.21,-17.35,0,*76
1537157191.78,26756,18.0,74586.3,3.79,-17.21,-17.55,0,*73
1537157193.03,26757,18.0,74586.8,3.81,-17.11,-17.45,0,*77
1537157194.28,26758,18.0,74586.0,3.79,-17.21,-17.49,0,*70
1537157195.55,26759,18.0,74584.0,3.79,-17.21,-17.63,0,*79
1537157196.81,26760,18.0,74584.8,3.81,-17.17,-17.45,0,*75
1537157198.06,26761,18.0,74584.3,3.81,-17.25,-17.59,0,*78
1537157199.29,26762,18.0,74586.5,3.81,-17.35,-17.59,0,*7A
1537157200.51,26763,18.0,74582.5,3.81,-17.25,-17.49,0,*7B
1537157201.76,26764,18.0,74582.8,3.81,-17.17,-17.59,0,*7C
1537157202.99,26765,18.0,74590.8,3.81,-17.35,-17.63,0,*74
1537157204.23,26766,18.0,74584.5,3.79,-17.31,-17.55,0,*71
1537157205.43,26767,18.0,74584.3,3.81,-17.35,-17.73,0,*77
1537157206.63,26768,18.0,74584.0,3.81,-17.35,-17.73,0,*78
1537157207.86,26769,18.0,74584.3,3.81,-17.35,-17.63,0,*78
1537157209.11,26770,18.0,74586.5,3.79,-17.41,-17.69,0,*7E
1537157210.37,26771,18.0,74584.8,3.79,-17.41,-17.69,0,*7F
1537157211.62,26772,18.0,74582.0,3.81,-17.25,-17.63,0,*73
1537157212.86,26773,18.0,74584.5,3.79,-17.31,-17.63,0,*70
1537157214.05,26774,18.0,74584.5,3.81,-17.31,-17.49,0,*78
1537157215.3,26775,18.0,74586.3,3.81,-17.25,-17.59,0,*7D
1537157216.53,26776,18.0,74584.5,3.81,-17.25,-17.49,0,*7F
1537157217.78,26777,18.0,74586.8,3.81,-17.17,-17.45,0,*73
1537157219.06,26778,18.0,74584.8,3.79,-17.21,-17.55,0,*7F
1537157220.31,26779,18.0,74586.8,3.81,-17.17,-17.59,0,*70
1537157221.54,26780,18.0,74586.0,3.81,-17.11,-17.35,0,*7A
1537157222.78,26781,18.0,74588.0,3.83,-17.11,-17.31,0,*7D
1537157223.99,26782,18.0,74586.3,3.81,-17.11,-17.31,0,*7C
1537157225.22,26783,18.0,74584.5,3.81,-17.03,-17.35,0,*7A
1537157226.44,26784,18.0,74586.3,3.81,-17.03,-17.31,0,*79
1537157227.7,26785,18.0,74584.8,3.81,-17.17,-17.45,0,*7E
1537157228.97,26786,18.0,74584.3,3.83,-17.11,-17.45,0,*79
1537157230.24,26787,18.0,74584.0,3.83,-17.07,-17.41,0,*7B
1537157231.46,26788,18.0,74584.3,3.85,-16.97,-17.25,0,*78
1537157232.73,26789,18.0,74586.0,3.83,-17.07,-17.25,0,*77
1537157233.98,26790,18.0,74586.0,3.83,-16.93,-17.21,0,*77
1537157235.2,26791,18.0,74584.0,3.85,-16.93,-17.11,0,*73
1537157236.42,26792,18.0,74590.0,3.85,-16.97,-17.25,0,*73
1537157237.64,26793,18.0,74586.0,3.85,-16.93,-17.07,0,*76
1537157238.86,26794,18.0,74586.8,3.85,-16.97,-17.25,0,*75
1537157240.09,26795,18.0,74586.5,3.85,-16.97,-17.21,0,*70
1537157241.33,26796,18.0,74586.8,3.85,-17.11,-17.41,0,*7A
1537157242.55,26797,18.0,74586.0,3.85,-17.07,-17.31,0,*7B
1537157243.8,26798,18.0,74586.0,3.85,-17.07,-17.45,0,*77
1537157245.05,26799,18.0,74586.8,3.85,-17.11,-17.55,0,*70
1537157246.3,26800,18.0,74584.5,3.85,-17.21,-17.41,0,*79
1537157247.52,26801,18.0,74584.3,3.85,-17.07,-17.31,0,*7B
1537157248.79,26802,18.0,74584.5,3.87,-17.03,-17.25,0,*7B
1537157250.03,26803,18.0,74584.0,3.87,-16.93,-17.21,0,*76
1537157251.26,26804,18.0,74584.5,3.87,-16.93,-17.35,0,*74
1537157252.5,26805,18.0,74590.8,3.87,-16.93,-17.21,0,*70
1537157253.75,26806,18.0,74586.3,3.89,-17.03,-17.25,0,*71
1537157255.0,26807,18.0,74584.8,3.87,-17.07,-17.35,0,*7B
1537157256.24,26808,18.0,74586.0,3.89,-17.07,-17.35,0,*7A
1537157257.49,26809,18.0,74588.0,3.89,-17.07,-17.25,0,*7A
1537157258.72,26810,18.0,74590.3,3.89,-17.07,-17.35,0,*73
1537157259.97,26811,17.94,74586.3,3.89,-17.07,-17.41,0,*71
1537157261.23,26812,18.0,74590.3,3.89,-17.07,-17.41,0,*72
1537157262.45,26813,18.0,74588.3,3.89,-17.25,-17.49,0,*7B
1537157263.67,26814,18.0,74588.8,3.93,-17.17,-17.49,0,*76
1537157264.89,26815,18.0,74588.3,3.93,-17.21,-17.49,0,*72
1537157266.11,26816,18.0,74588.5,3.93,-17.31,-17.63,0,*78
1537157267.33,26817,18.0,74588.0,3.93,-17.35,-17.63,0,*7D
1537157268.55,26818,18.0,74586.3,3.93,-17.17,-17.49,0,*7A
1537157269.77,26819,18.0,74586.5,3.93,-17.11,-17.35,0,*76
1537157271.0,26820,18.0,74586.8,3.93,-16.97,-17.21,0,*76
1537157272.24,26821,18.0,74586.3,3.93,-17.03,-17.45,0,*79
1537157273.49,26822,18.0,74584.0,3.95,-16.97,-17.41,0,*74
1537157274.71,26823,18.0,74582.8,3.93,-16.97,-17.21,0,*75
1537157275.95,26824,18.0,74586.8,3.95,-16.97,-17.25,0,*70
1537157277.2,26825,18.0,74586.0,3.93,-17.17,-17.45,0,*78
1537157278.47,26826,18.0,74586.3,3.95,-17.11,-17.45,0,*7B
1537157279.74,26827,18.0,74584.3,3.95,-17.07,-17.45,0,*7D
1537157280.98,26828,18.0,74586.5,3.95,-17.11,-17.31,0,*76
1537157282.23,26829,18.0,74586.8,3.93,-17.21,-17.45,0,*71
1537157283.5,26830,18.0,74584.8,3.95,-17.17,-17.55,0,*7B
1537157284.78,26831,18.0,74584.0,3.95,-17.17,-17.45,0,*7B
1537157286.03,26832,18.0,74586.8,3.93,-17.17,-17.45,0,*7E
1537157287.27,26833,18.0,74588.5,3.95,-17.07,-17.31,0,*7B
1537157288.51,26834,17.94,74584.3,3.93,-17.11,-17.45,0,*7E
1537157289.76,26835,18.0,74586.5,3.95,-17.07,-17.31,0,*7D
1537157291.03,26836,18.0,74588.5,3.95,-17.11,-17.45,0,*7A
1537157292.3,26837,18.0,74588.0,3.95,-17.11,-17.45,0,*7B
1537157293.56,26838,18.0,74584.0,3.95,-17.11,-17.45,0,*74
1537157294.84,26839,18.0,74584.3,3.95,-17.25,-17.59,0,*7F
1537157296.11,26840,18.0,74586.3,3.95,-17.17,-17.55,0,*7C
1537157297.38,26841,18.0,74584.3,3.95,-17.25,-17.55,0,*7C
1537157298.67,26842,18.0,74586.8,3.97,-17.17,-17.45,0,*7D
1537157299.95,26843,18.0,74586.8,3.97,-17.11,-17.45,0,*7A
1537157301.23,26844,18.0,74586.5,3.97,-17.17,-17.55,0,*7A
1537157302.51,26845,18.0,74584.5,3.97,-17.07,-17.45,0,*7B
1537157303.79,26846,18.0,74584.5,3.97,-17.17,-17.45,0,*79
1537157305.07,26847,18.0,74582.0,3.97,-17.11,-17.45,0,*7E
1537157306.33,26848,18.0,74584.0,3.99,-17.07,-17.41,0,*7C
1537157307.56,26849,18.0,74586.8,3.99,-17.07,-17.49,0,*75
1537157308.79,26850,18.0,74584.5,3.99,-17.21,-17.49,0,*79
1537157310.04,26851,18.0,74584.3,3.97,-17.25,-17.69,0,*70
1537157311.27,26852,17.94,74582.3,3.99,-17.21,-17.49,0,*7B
1537157312.55,26853,18.0,74584.8,3.97,-17.17,-17.45,0,*7D
1537157313.83,26854,18.0,74586.3,3.97,-17.11,-17.45,0,*7C
1537157315.09,26855,18.0,74586.3,3.99,-17.07,-17.41,0,*70